| time (UTC) | temp F | wind direction | speed MPH | gust MPH | rain 1hr in | rain 24hr in | rain mn in | humidity % | barometer mb |
| 20260506043843 | 50 | 215 | 14.0 | 16.0 | 0.00 | 0.00 | 0.00 | 100 | 1007.5 |
| 20260506043403 | 50 | 219 | 13.0 | 17.0 | 0.00 | 0.00 | 0.00 | 100 | 1007.6 |
| 20260506042923 | 50 | 219 | 16.0 | 19.0 | 0.00 | 0.00 | 0.00 | 100 | 1007.5 |
| 20260506042442 | 49 | 207 | 16.0 | 18.0 | 0.00 | 0.00 | 0.00 | 100 | 1007.4 |
| 20260506042002 | 49 | 199 | 17.0 | 19.0 | 0.00 | 0.00 | 0.00 | 100 | 1007.5 |
| 20260506041522 | 49 | 216 | 15.0 | 17.0 | 0.00 | 0.00 | 0.00 | 100 | 1007.4 |
| 20260506041042 | 49 | 203 | 16.0 | 18.0 | 0.00 | 0.00 | 0.00 | 100 | 1007.3 |
| 20260506040602 | 49 | 204 | 16.0 | 20.0 | 0.00 | 0.00 | 0.00 | 100 | 1007.3 |
| 20260506040122 | 49 | 213 | 15.0 | 21.0 | 0.00 | 0.00 | 0.00 | 100 | 1007.2 |
| 20260506035642 | 49 | 216 | 14.0 | 20.0 | 0.00 | 0.00 | 0.00 | 100 | 1007.1 |
| 20260506035202 | 48 | 213 | 12.0 | 18.0 | 0.00 | 0.00 | 0.00 | 100 | 1007.0 |
| 20260506034722 | 48 | 222 | 11.0 | 13.0 | 0.00 | 0.00 | 0.00 | 100 | 1006.9 |
| 20260506034242 | 48 | 222 | 13.0 | 14.0 | 0.00 | 0.00 | 0.00 | 100 | 1006.9 |
| 20260506033802 | 48 | 222 | 13.0 | 14.0 | 0.00 | 0.00 | 0.00 | 100 | 1006.9 |
| 20260506033322 | 48 | 222 | 13.0 | 13.0 | 0.00 | 0.00 | 0.00 | 100 | 1006.9 |
| 20260506032842 | 48 | 222 | 12.0 | 15.0 | 0.00 | 0.00 | 0.00 | 100 | 1007.0 |
| 20260506032402 | 48 | 213 | 12.0 | 13.0 | 0.00 | 0.00 | 0.00 | 100 | 1007.0 |
| 20260506031922 | 48 | 222 | 12.0 | 13.0 | 0.00 | 0.00 | 0.00 | 100 | 1007.0 |
| 20260506031442 | 48 | 216 | 12.0 | 15.0 | 0.00 | 0.00 | 0.00 | 100 | 1007.0 |
| 20260506031002 | 48 | 219 | 15.0 | 19.0 | 0.00 | 0.00 | 0.00 | 100 | 1006.9 |
| 20260506030522 | 48 | 222 | 11.0 | 13.0 | 0.00 | 0.00 | 0.00 | 100 | 1007.0 |
| 20260506030042 | 48 | 222 | 15.0 | 22.0 | 0.00 | 0.00 | 0.00 | 100 | 1007.1 |
| 20260506025602 | 48 | 216 | 16.0 | 20.0 | 0.00 | 0.00 | 0.00 | 100 | 1007.1 |
| 20260506025122 | 48 | 215 | 17.0 | 20.0 | 0.00 | 0.00 | 0.00 | 100 | 1007.1 |
| 20260506024642 | 49 | 224 | 15.0 | 19.0 | 0.00 | 0.00 | 0.00 | 100 | 1007.0 |
| 20260506024202 | 49 | 213 | 15.0 | 17.0 | 0.00 | 0.00 | 0.00 | 100 | 1007.2 |
| 20260506023722 | 49 | 222 | 17.0 | 20.0 | 0.00 | 0.00 | 0.00 | 100 | 1007.3 |
| 20260506023242 | 49 | 225 | 13.0 | 17.0 | 0.00 | 0.00 | 0.00 | 100 | 1007.2 |
| 20260506022802 | 49 | 216 | 11.0 | 16.0 | 0.00 | 0.00 | 0.00 | 100 | 1007.2 |
| 20260506022322 | 49 | 218 | 12.0 | 15.0 | 0.00 | 0.00 | 0.00 | 100 | 1007.3 |
| 20260506021842 | 49 | 203 | 10.0 | 12.0 | 0.00 | 0.00 | 0.00 | 100 | 1007.3 |
| 20260506021402 | 49 | 210 | 9.0 | 12.0 | 0.00 | 0.00 | 0.00 | 100 | 1007.3 |
| 20260506020922 | 49 | 212 | 10.0 | 12.0 | 0.00 | 0.00 | 0.00 | 100 | 1007.3 |
| 20260506020442 | 49 | 215 | 10.0 | 12.0 | 0.00 | 0.00 | 0.00 | 100 | 1007.4 |
| 20260506020002 | 49 | 222 | 9.0 | 11.0 | 0.00 | 0.00 | 0.00 | 100 | 1007.4 |
| 20260506015522 | 49 | 213 | 9.0 | 10.0 | 0.00 | 0.00 | 0.00 | 100 | 1007.4 |
| 20260506015042 | 49 | 216 | 9.0 | 10.0 | 0.00 | 0.00 | 0.00 | 100 | 1007.4 |
| 20260506014602 | 49 | 219 | 8.0 | 9.0 | 0.00 | 0.00 | 0.00 | 100 | 1007.4 |
| 20260506014122 | 49 | 222 | 10.0 | 12.0 | 0.00 | 0.00 | 0.00 | 100 | 1007.3 |
| 20260506013642 | 50 | 203 | 10.0 | 12.0 | 0.00 | 0.00 | 0.00 | 100 | 1007.3 |
| 20260506013202 | 50 | 206 | 10.0 | 12.0 | 0.00 | 0.00 | 0.00 | 100 | 1007.3 |
| 20260506012722 | 50 | 222 | 10.0 | 14.0 | 0.00 | 0.00 | 0.00 | 100 | 1007.3 |
| 20260506012242 | 50 | 213 | 11.0 | 13.0 | 0.00 | 0.00 | 0.00 | 100 | 1007.2 |
| 20260506011802 | 50 | 213 | 10.0 | 12.0 | 0.00 | 0.00 | 0.00 | 100 | 1007.2 |
| 20260506011322 | 50 | 203 | 10.0 | 11.0 | 0.00 | 0.00 | 0.00 | 100 | 1007.2 |
| 20260506010841 | 50 | 206 | 9.0 | 10.0 | 0.00 | 0.00 | 0.00 | 100 | 1007.3 |
| 20260506010401 | 50 | 210 | 8.0 | 10.0 | 0.00 | 0.00 | 0.00 | 100 | 1007.3 |
| 20260506005921 | 50 | 215 | 7.0 | 9.0 | 0.00 | 0.00 | 0.00 | 100 | 1007.3 |
| 20260506005441 | 50 | 207 | 8.0 | 11.0 | 0.00 | 0.00 | 0.00 | 100 | 1007.2 |
| 20260506005001 | 51 | 204 | 8.0 | 10.0 | 0.00 | 0.00 | 0.00 | 100 | 1007.2 |
| 20260506004521 | 51 | 183 | 10.0 | 12.0 | 0.00 | 0.00 | 0.00 | 100 | 1007.3 |
| 20260506004041 | 51 | 209 | 10.0 | 13.0 | 0.00 | 0.00 | 0.00 | 100 | 1007.3 |
| 20260506003601 | 51 | 218 | 12.0 | 13.0 | 0.00 | 0.00 | 0.00 | 100 | 1007.3 |
| 20260506003121 | 51 | 201 | 13.0 | 16.0 | 0.00 | 0.00 | 0.00 | 100 | 1007.3 |
| 20260506002641 | 51 | 195 | 13.0 | 16.0 | 0.00 | 0.00 | 0.00 | 100 | 1007.2 |
| 20260506002201 | 51 | 206 | 12.0 | 15.0 | 0.00 | 0.00 | 0.00 | 100 | 1007.3 |
| 20260506001721 | 51 | 213 | 12.0 | 14.0 | 0.00 | 0.00 | 0.00 | 100 | 1007.3 |
| 20260506001241 | 51 | 203 | 13.0 | 15.0 | 0.00 | 0.00 | 0.00 | 100 | 1007.3 |
| 20260506000801 | 51 | 196 | 12.0 | 15.0 | 0.00 | 0.00 | 0.00 | 100 | 1007.4 |
| 20260506000322 | 51 | 216 | 10.0 | 12.0 | 0.00 | 0.00 | 0.00 | 100 | 1007.4 |
| 20260505235840 | 51 | 210 | 9.0 | 12.0 | 0.00 | 0.00 | 0.00 | 100 | 1007.5 |
| 20260505235400 | 51 | 218 | 8.0 | 10.0 | 0.00 | 0.00 | 0.00 | 100 | 1007.5 |
| 20260505234920 | 51 | 183 | 9.0 | 12.0 | 0.00 | 0.00 | 0.00 | 100 | 1007.6 |
| 20260505234440 | 51 | 196 | 9.0 | 11.0 | 0.00 | 0.00 | 0.00 | 100 | 1007.6 |
| 20260505234000 | 51 | 192 | 8.0 | 10.0 | 0.00 | 0.00 | 0.00 | 100 | 1007.5 |
| 20260505233520 | 51 | 190 | 6.0 | 9.0 | 0.00 | 0.00 | 0.00 | 100 | 1007.5 |
| 20260505233040 | 51 | 224 | 6.0 | 6.0 | 0.00 | 0.00 | 0.00 | 100 | 1007.5 |
| 20260505232600 | 51 | 221 | 5.0 | 7.0 | 0.00 | 0.00 | 0.00 | 100 | 1007.6 |
| 20260505232120 | 51 | 209 | 5.0 | 6.0 | 0.00 | 0.00 | 0.00 | 100 | 1007.5 |
| 20260505231640 | 51 | 225 | 6.0 | 8.0 | 0.00 | 0.00 | 0.00 | 100 | 1007.4 |
| 20260505231200 | 51 | 210 | 4.0 | 5.0 | 0.00 | 0.00 | 0.00 | 100 | 1007.5 |
| 20260505230720 | 51 | 225 | 4.0 | 4.0 | 0.00 | 0.00 | 0.00 | 100 | 1007.3 |
| 20260505230240 | 51 | 203 | 5.0 | 6.0 | 0.00 | 0.00 | 0.00 | 100 | 1007.3 |
| 20260505225759 | 51 | 180 | 3.0 | 4.0 | 0.00 | 0.00 | 0.00 | 100 | 1007.3 |
| 20260505225319 | 51 | 180 | 3.0 | 4.0 | 0.00 | 0.00 | 0.00 | 100 | 1007.4 |
| 20260505224839 | 51 | 180 | 4.0 | 5.0 | 0.00 | 0.00 | 0.00 | 100 | 1007.3 |
| 20260505224359 | 51 | 180 | 3.0 | 3.0 | 0.00 | 0.00 | 0.00 | 100 | 1007.3 |
| 20260505223919 | 51 | 180 | 0.0 | 1.0 | 0.00 | 0.00 | 0.00 | 100 | 1007.2 |
| 20260505223439 | 51 | 180 | 0.0 | 2.0 | 0.00 | 0.00 | 0.00 | 100 | 1007.2 |
| 20260505222959 | 51 | 180 | 1.0 | 2.0 | 0.00 | 0.00 | 0.00 | 100 | 1007.1 |
| 20260505222519 | 51 | 218 | 1.0 | 2.0 | 0.00 | 0.00 | 0.00 | 100 | 1007.2 |
| 20260505222039 | 51 | 225 | 2.0 | 3.0 | 0.00 | 0.00 | 0.00 | 100 | 1007.3 |
| 20260505221559 | 51 | 219 | 2.0 | 3.0 | 0.00 | 0.00 | 0.00 | 100 | 1007.4 |
| 20260505221119 | 51 | 213 | 3.0 | 5.0 | 0.00 | 0.00 | 0.00 | 100 | 1007.5 |
| 20260505220719 | 51 | 219 | 5.0 | 6.0 | 0.00 | 0.00 | 0.00 | 100 | 1007.5 |
| 20260505220639 | 51 | 219 | 5.0 | 6.0 | 0.00 | 0.00 | 0.00 | 100 | 1007.5 |
| 20260505220235 | 51 | 192 | 5.0 | 8.0 | 0.00 | 0.00 | 0.00 | 100 | 1007.5 |
| 20260505220159 | 51 | 192 | 5.0 | 8.0 | 0.00 | 0.00 | 0.00 | 100 | 1007.5 |
| 20260505215718 | 51 | 240 | 4.0 | 6.0 | 0.00 | 0.00 | 0.00 | 100 | 1007.5 |
| 20260505215238 | 51 | 220 | 5.0 | 7.0 | 0.00 | 0.00 | 0.00 | 100 | 1007.6 |
| 20260505214758 | 51 | 267 | 5.0 | 10.0 | 0.00 | 0.00 | 0.00 | 100 | 1007.8 |
| 20260505214318 | 51 | 357 | 7.0 | 10.0 | 0.00 | 0.00 | 0.00 | 100 | 1007.6 |
| 20260505213838 | 51 | 342 | 9.0 | 12.0 | 0.00 | 0.00 | 0.00 | 100 | 1007.2 |
| 20260505213358 | 51 | 344 | 7.0 | 11.0 | 0.00 | 0.00 | 0.00 | 100 | 1007.2 |
| 20260505212918 | 51 | 331 | 9.0 | 12.0 | 0.00 | 0.00 | 0.00 | 100 | 1007.0 |
| 20260505212438 | 51 | 259 | 4.0 | 11.0 | 0.00 | 0.00 | 0.00 | 100 | 1007.3 |
| 20260505211958 | 51 | 232 | 6.0 | 11.0 | 0.00 | 0.00 | 0.00 | 100 | 1007.7 |
| 20260505211518 | 51 | 255 | 8.0 | 11.0 | 0.00 | 0.00 | 0.00 | 100 | 1007.8 |
| 20260505211038 | 51 | 252 | 10.0 | 15.0 | 0.00 | 0.00 | 0.00 | 100 | 1007.7 |
| 20260505210721 | 51 | 232 | 13.0 | 16.0 | 0.00 | 0.00 | 0.00 | 100 | 1007.8 |
| 20260505210557 | 51 | 232 | 13.0 | 16.0 | 0.00 | 0.00 | 0.00 | 100 | 1007.8 |
| 20260505210117 | 51 | 246 | 14.0 | 17.0 | 0.00 | 0.00 | 0.00 | 100 | 1008.0 |
| 20260505205637 | 51 | 236 | 14.0 | 20.0 | 0.00 | 0.00 | 0.00 | 100 | 1007.9 |
| 20260505205157 | 51 | 268 | 12.0 | 19.0 | 0.00 | 0.00 | 0.00 | 100 | 1008.0 |
| 20260505204717 | 51 | 246 | 12.0 | 16.0 | 0.00 | 0.00 | 0.00 | 100 | 1008.0 |
| 20260505204237 | 51 | 266 | 11.0 | 16.0 | 0.00 | 0.00 | 0.00 | 100 | 1008.1 |
| 20260505203757 | 52 | 243 | 15.0 | 25.0 | 0.00 | 0.00 | 0.00 | 100 | 1007.8 |
| 20260505203519 | 52 | 249 | 15.0 | 23.0 | 0.00 | 0.00 | 0.00 | 100 | 1007.7 |
| 20260505203317 | 52 | 249 | 15.0 | 23.0 | 0.00 | 0.00 | 0.00 | 100 | 1007.7 |
| 20260505202836 | 52 | 264 | 16.0 | 22.0 | 0.00 | 0.00 | 0.00 | 100 | 1007.5 |
| 20260505202356 | 53 | 240 | 18.0 | 33.0 | 0.00 | 0.00 | 0.00 | 100 | 1007.7 |
| 20260505201916 | 54 | 227 | 20.0 | 23.0 | 0.00 | 0.00 | 0.00 | 100 | 1007.9 |
| 20260505201436 | 56 | 221 | 20.0 | 25.0 | 0.00 | 0.00 | 0.00 | 100 | 1007.7 |
| 20260505200955 | 56 | 210 | 17.0 | 21.0 | 0.00 | 0.00 | 0.00 | 99 | 1007.7 |
| 20260505200720 | 57 | 210 | 15.0 | 18.0 | 0.00 | 0.00 | 0.00 | 95 | 1007.8 |
| 20260505200515 | 57 | 210 | 15.0 | 18.0 | 0.00 | 0.00 | 0.00 | 95 | 1007.8 |
| 20260505200035 | 58 | 219 | 10.0 | 19.0 | 0.00 | 0.00 | 0.00 | 87 | 1007.6 |
| 20260505195554 | 60 | 353 | 3.0 | 5.0 | 0.00 | 0.00 | 0.00 | 72 | 1007.2 |
| 20260505195316 | 60 | 356 | 4.0 | 6.0 | 0.00 | 0.00 | 0.00 | 72 | 1006.9 |
| 20260505195114 | 60 | 356 | 4.0 | 6.0 | 0.00 | 0.00 | 0.00 | 72 | 1006.9 |
| 20260505194633 | 60 | 353 | 5.0 | 6.0 | 0.00 | 0.00 | 0.00 | 73 | 1006.6 |
| 20260505194153 | 60 | 0 | 5.0 | 7.0 | 0.00 | 0.00 | 0.00 | 72 | 1006.3 |
| 20260505193827 | 60 | 357 | 6.0 | 8.0 | 0.00 | 0.00 | 0.00 | 72 | 1006.2 |
| 20260505193713 | 60 | 357 | 6.0 | 8.0 | 0.00 | 0.00 | 0.00 | 72 | 1006.2 |
| 20260505193232 | 61 | 0 | 8.0 | 10.0 | 0.00 | 0.00 | 0.00 | 71 | 1006.1 |
| 20260505192752 | 61 | 0 | 9.0 | 12.0 | 0.00 | 0.00 | 0.00 | 71 | 1006.0 |
| 20260505192311 | 61 | 0 | 9.0 | 12.0 | 0.00 | 0.00 | 0.00 | 71 | 1005.9 |
| 20260505191831 | 61 | 1 | 9.0 | 12.0 | 0.00 | 0.00 | 0.00 | 70 | 1005.9 |
| 20260505191350 | 62 | 1 | 10.0 | 14.0 | 0.00 | 0.00 | 0.00 | 70 | 1005.9 |
| 20260505190910 | 62 | 0 | 9.0 | 13.0 | 0.00 | 0.00 | 0.00 | 70 | 1005.8 |
| 20260505190430 | 62 | 3 | 11.0 | 16.0 | 0.00 | 0.00 | 0.00 | 70 | 1005.7 |
| 20260505185949 | 62 | 19 | 9.0 | 12.0 | 0.00 | 0.00 | 0.00 | 70 | 1005.8 |
| 20260505185719 | 62 | 13 | 11.0 | 15.0 | 0.00 | 0.00 | 0.00 | 69 | 1005.8 |
| 20260505185509 | 62 | 13 | 11.0 | 15.0 | 0.00 | 0.00 | 0.00 | 69 | 1005.8 |
| 20260505185028 | 62 | 13 | 10.0 | 16.0 | 0.00 | 0.00 | 0.00 | 69 | 1005.7 |
| 20260505184718 | 62 | 24 | 10.0 | 14.0 | 0.00 | 0.00 | 0.00 | 69 | 1005.6 |
| 20260505184548 | 62 | 24 | 10.0 | 14.0 | 0.00 | 0.00 | 0.00 | 69 | 1005.6 |
| 20260505184107 | 62 | 41 | 14.0 | 18.0 | 0.00 | 0.00 | 0.00 | 68 | 1005.6 |
| 20260505183627 | 63 | 35 | 16.0 | 19.0 | 0.00 | 0.00 | 0.00 | 68 | 1005.5 |
| 20260505183146 | 63 | 39 | 15.0 | 20.0 | 0.00 | 0.00 | 0.00 | 68 | 1005.6 |
| 20260505182713 | 63 | 42 | 14.0 | 20.0 | 0.00 | 0.00 | 0.00 | 67 | 1005.5 |
| 20260505182710 | 63 | 42 | 14.0 | 20.0 | 0.00 | 0.00 | 0.00 | 67 | 1005.5 |
| 20260505182705 | 63 | 42 | 14.0 | 20.0 | 0.00 | 0.00 | 0.00 | 67 | 1005.5 |
| 20260505182225 | 63 | 45 | 13.0 | 18.0 | 0.00 | 0.00 | 0.00 | 67 | 1005.5 |
| 20260505181744 | 63 | 33 | 16.0 | 19.0 | 0.00 | 0.00 | 0.00 | 66 | 1005.5 |
| 20260505181304 | 63 | 33 | 14.0 | 18.0 | 0.00 | 0.00 | 0.00 | 66 | 1005.6 |
| 20260505181101 | 63 | 42 | 15.0 | 19.0 | 0.00 | 0.00 | 0.00 | 65 | 1005.6 |
| 20260505180823 | 63 | 42 | 15.0 | 19.0 | 0.00 | 0.00 | 0.00 | 65 | 1005.6 |
| 20260505180343 | 64 | 45 | 17.0 | 23.0 | 0.00 | 0.00 | 0.00 | 65 | 1005.5 |
| 20260505175902 | 64 | 29 | 10.0 | 14.0 | 0.00 | 0.00 | 0.00 | 64 | 1005.6 |
| 20260505175422 | 64 | 10 | 8.0 | 11.0 | 0.00 | 0.00 | 0.00 | 64 | 1005.6 |
| 20260505174941 | 64 | 15 | 12.0 | 16.0 | 0.00 | 0.00 | 0.00 | 63 | 1005.6 |
| 20260505174500 | 65 | 12 | 12.0 | 19.0 | 0.00 | 0.00 | 0.00 | 63 | 1005.6 |
| 20260505174020 | 65 | 24 | 10.0 | 16.0 | 0.00 | 0.00 | 0.00 | 63 | 1005.6 |
| 20260505173539 | 65 | 4 | 12.0 | 17.0 | 0.00 | 0.00 | 0.00 | 62 | 1005.6 |
| 20260505173059 | 65 | 3 | 15.0 | 20.0 | 0.00 | 0.00 | 0.00 | 62 | 1005.5 |
| 20260505172618 | 65 | 3 | 12.0 | 16.0 | 0.00 | 0.00 | 0.00 | 62 | 1005.4 |
| 20260505172137 | 66 | 13 | 12.0 | 16.0 | 0.00 | 0.00 | 0.00 | 62 | 1005.4 |
| 20260505171657 | 66 | 10 | 11.0 | 19.0 | 0.00 | 0.00 | 0.00 | 61 | 1005.4 |
| 20260505171216 | 66 | 12 | 15.0 | 21.0 | 0.00 | 0.00 | 0.00 | 61 | 1005.4 |
| 20260505170735 | 66 | 0 | 14.0 | 23.0 | 0.00 | 0.00 | 0.00 | 61 | 1005.6 |
| 20260505170255 | 66 | 3 | 16.0 | 20.0 | 0.00 | 0.00 | 0.00 | 60 | 1005.6 |
| 20260505165913 | 66 | 0 | 12.0 | 18.0 | 0.00 | 0.00 | 0.00 | 60 | 1005.5 |
| 20260505165814 | 66 | 0 | 12.0 | 18.0 | 0.00 | 0.00 | 0.00 | 60 | 1005.5 |
| 20260505165333 | 66 | 3 | 11.0 | 19.0 | 0.00 | 0.00 | 0.00 | 59 | 1005.7 |
| 20260505165020 | 66 | 0 | 14.0 | 23.0 | 0.00 | 0.00 | 0.00 | 59 | 1005.6 |
| 20260505164857 | 66 | 0 | 14.0 | 23.0 | 0.00 | 0.00 | 0.00 | 59 | 1005.6 |
| 20260505164853 | 66 | 0 | 14.0 | 23.0 | 0.00 | 0.00 | 0.00 | 59 | 1005.6 |
| 20260505164608 | 67 | 0 | 10.0 | 13.0 | 0.00 | 0.00 | 0.00 | 58 | 1005.6 |
| 20260505164412 | 67 | 0 | 10.0 | 13.0 | 0.00 | 0.00 | 0.00 | 58 | 1005.6 |
| 20260505163931 | 67 | 0 | 11.0 | 13.0 | 0.00 | 0.00 | 0.00 | 58 | 1005.7 |
| 20260505163451 | 67 | 0 | 12.0 | 15.0 | 0.00 | 0.00 | 0.00 | 58 | 1005.6 |
| 20260505163010 | 67 | 0 | 14.0 | 22.0 | 0.00 | 0.00 | 0.00 | 57 | 1005.8 |
| 20260505162529 | 67 | 0 | 11.0 | 15.0 | 0.00 | 0.00 | 0.00 | 57 | 1005.8 |
| 20260505162048 | 67 | 0 | 10.0 | 14.0 | 0.00 | 0.00 | 0.00 | 57 | 1005.8 |
| 20260505161608 | 67 | 357 | 11.0 | 13.0 | 0.00 | 0.00 | 0.00 | 57 | 1005.8 |
| 20260505161219 | 68 | 3 | 10.0 | 13.0 | 0.00 | 0.00 | 0.00 | 56 | 1005.9 |
| 20260505161127 | 68 | 3 | 10.0 | 13.0 | 0.00 | 0.00 | 0.00 | 56 | 1005.9 |
| 20260505160724 | 67 | 3 | 10.0 | 12.0 | 0.00 | 0.00 | 0.00 | 57 | 1005.9 |
| 20260505160646 | 67 | 3 | 10.0 | 12.0 | 0.00 | 0.00 | 0.00 | 57 | 1005.9 |
| 20260505160205 | 68 | 0 | 16.0 | 21.0 | 0.00 | 0.00 | 0.00 | 56 | 1006.0 |
| 20260505152919 | 73 | 39 | 8.0 | 14.0 | 0.00 | 0.00 | 0.00 | 41 | 1006.0 |
| 20260505152438 | 73 | 45 | 8.0 | 10.0 | 0.00 | 0.00 | 0.00 | 41 | 1006.0 |
| 20260505151957 | 73 | 61 | 7.0 | 11.0 | 0.00 | 0.00 | 0.00 | 41 | 1006.0 |
| 20260505151516 | 73 | 82 | 8.0 | 12.0 | 0.00 | 0.00 | 0.00 | 40 | 1006.1 |
| 20260505151035 | 75 | 69 | 5.0 | 8.0 | 0.00 | 0.00 | 0.00 | 39 | 1006.0 |
| 20260505150554 | 73 | 48 | 8.0 | 10.0 | 0.00 | 0.00 | 0.00 | 40 | 1006.0 |
| 20260505150113 | 72 | 45 | 8.0 | 12.0 | 0.00 | 0.00 | 0.00 | 38 | 1006.0 |
| 20260505140456 | 82 | 33 | 8.0 | 13.0 | 0.00 | 0.00 | 0.00 | 33 | 1006.6 |
| 20260505124949 | 81 | 51 | 7.0 | 15.0 | 0.00 | 0.00 | 0.00 | 34 | 1007.4 |
| 20260505124508 | 81 | 69 | 5.0 | 9.0 | 0.00 | 0.00 | 0.00 | 33 | 1007.4 |
| 20260505124118 | 80 | 45 | 6.0 | 10.0 | 0.00 | 0.00 | 0.00 | 33 | 1007.5 |
| 20260505124027 | 80 | 45 | 6.0 | 10.0 | 0.00 | 0.00 | 0.00 | 33 | 1007.5 |
| 20260505123544 | 81 | 64 | 5.0 | 11.0 | 0.00 | 0.00 | 0.00 | 34 | 1007.6 |
| 20260505123103 | 81 | 82 | 2.0 | 4.0 | 0.00 | 0.00 | 0.00 | 35 | 1007.6 |
| 20260505122621 | 78 | 63 | 6.0 | 9.0 | 0.00 | 0.00 | 0.00 | 35 | 1007.7 |
| 20260505122140 | 79 | 92 | 6.0 | 13.0 | 0.00 | 0.00 | 0.00 | 35 | 1007.7 |
| 20260505121658 | 78 | 67 | 5.0 | 8.0 | 0.00 | 0.00 | 0.00 | 37 | 1007.7 |
| 20260505121217 | 78 | 54 | 6.0 | 8.0 | 0.00 | 0.00 | 0.00 | 36 | 1007.7 |
| 20260505120735 | 78 | 55 | 5.0 | 10.0 | 0.00 | 0.00 | 0.00 | 37 | 1007.7 |
| 20260505120254 | 77 | 77 | 6.0 | 9.0 | 0.00 | 0.00 | 0.00 | 37 | 1007.7 |
| 20260505115812 | 78 | 45 | 5.0 | 8.0 | 0.00 | 0.00 | 0.00 | 38 | 1007.8 |
| 20260505115331 | 76 | 38 | 7.0 | 9.0 | 0.00 | 0.00 | 0.00 | 39 | 1007.9 |
| 20260505115000 | 77 | 44 | 6.0 | 8.0 | 0.00 | 0.00 | 0.00 | 38 | 1007.9 |
| 20260505114849 | 77 | 44 | 6.0 | 8.0 | 0.00 | 0.00 | 0.00 | 38 | 1007.9 |
| 20260505114408 | 78 | 18 | 4.0 | 9.0 | 0.00 | 0.00 | 0.00 | 38 | 1007.9 |
| 20260505113926 | 77 | 39 | 7.0 | 9.0 | 0.00 | 0.00 | 0.00 | 38 | 1007.9 |
| 20260505113444 | 77 | 51 | 6.0 | 9.0 | 0.00 | 0.00 | 0.00 | 39 | 1008.0 |
| 20260505113003 | 76 | 52 | 5.0 | 10.0 | 0.00 | 0.00 | 0.00 | 38 | 1007.9 |
| 20260505112521 | 76 | 52 | 6.0 | 8.0 | 0.00 | 0.00 | 0.00 | 38 | 1008.0 |
| 20260505112041 | 77 | 66 | 5.0 | 8.0 | 0.00 | 0.00 | 0.00 | 36 | 1008.0 |
| 20260505111558 | 76 | 61 | 7.0 | 8.0 | 0.00 | 0.00 | 0.00 | 38 | 1008.1 |
| 20260505111117 | 78 | 46 | 6.0 | 9.0 | 0.00 | 0.00 | 0.00 | 38 | 1008.1 |
| 20260505110635 | 78 | 60 | 4.0 | 5.0 | 0.00 | 0.00 | 0.00 | 40 | 1008.2 |
| 20260505110154 | 77 | 49 | 5.0 | 7.0 | 0.00 | 0.00 | 0.00 | 40 | 1008.2 |
| 20260505101940 | 75 | 46 | 4.0 | 6.0 | 0.00 | 0.00 | 0.00 | 43 | 1008.7 |
| 20260505101458 | 76 | 12 | 4.0 | 7.0 | 0.00 | 0.00 | 0.00 | 44 | 1008.7 |
| 20260505101017 | 75 | 36 | 4.0 | 6.0 | 0.00 | 0.00 | 0.00 | 45 | 1008.7 |
| 20260505100535 | 75 | 40 | 4.0 | 7.0 | 0.00 | 0.00 | 0.00 | 46 | 1008.8 |
| 20260505100055 | 74 | 24 | 4.0 | 6.0 | 0.00 | 0.00 | 0.00 | 46 | 1008.9 |
| 20260505095613 | 74 | 355 | 4.0 | 7.0 | 0.00 | 0.00 | 0.00 | 46 | 1008.9 |
| 20260505095131 | 73 | 338 | 5.0 | 7.0 | 0.00 | 0.00 | 0.00 | 47 | 1009.0 |
| 20260505094650 | 73 | 344 | 5.0 | 7.0 | 0.00 | 0.00 | 0.00 | 47 | 1009.0 |
| 20260505094209 | 72 | 338 | 6.0 | 9.0 | 0.00 | 0.00 | 0.00 | 46 | 1009.0 |
| 20260505093728 | 71 | 341 | 7.0 | 9.0 | 0.00 | 0.00 | 0.00 | 49 | 1009.1 |
| 20260505093246 | 71 | 330 | 6.0 | 9.0 | 0.00 | 0.00 | 0.00 | 48 | 1009.1 |
| 20260505092805 | 71 | 334 | 7.0 | 8.0 | 0.00 | 0.00 | 0.00 | 50 | 1009.1 |
| 20260505092324 | 71 | 328 | 6.0 | 10.0 | 0.00 | 0.00 | 0.00 | 50 | 1009.1 |
| 20260505091843 | 71 | 344 | 6.0 | 9.0 | 0.00 | 0.00 | 0.00 | 51 | 1009.1 |
| 20260505091403 | 71 | 339 | 6.0 | 8.0 | 0.00 | 0.00 | 0.00 | 52 | 1009.1 |
| 20260505090921 | 70 | 7 | 5.0 | 8.0 | 0.00 | 0.00 | 0.00 | 50 | 1009.2 |
| 20260505090439 | 70 | 9 | 6.0 | 7.0 | 0.00 | 0.00 | 0.00 | 52 | 1009.2 |
| 20260505085958 | 70 | 345 | 5.0 | 7.0 | 0.00 | 0.00 | 0.00 | 53 | 1009.2 |
| 20260505085518 | 69 | 347 | 7.0 | 8.0 | 0.00 | 0.00 | 0.00 | 53 | 1009.2 |
| 20260505085036 | 69 | 356 | 6.0 | 8.0 | 0.00 | 0.00 | 0.00 | 53 | 1009.3 |
| 20260505084555 | 69 | 342 | 6.0 | 8.0 | 0.00 | 0.00 | 0.00 | 53 | 1009.3 |
| 20260505084114 | 69 | 351 | 7.0 | 8.0 | 0.00 | 0.00 | 0.00 | 53 | 1009.3 |
| 20260505083634 | 68 | 348 | 7.0 | 9.0 | 0.00 | 0.00 | 0.00 | 53 | 1009.4 |
| 20260505083153 | 68 | 348 | 6.0 | 8.0 | 0.00 | 0.00 | 0.00 | 54 | 1009.4 |
| 20260505082712 | 68 | 351 | 7.0 | 8.0 | 0.00 | 0.00 | 0.00 | 53 | 1009.5 |
| 20260505082307 | 68 | 350 | 6.0 | 8.0 | 0.00 | 0.00 | 0.00 | 53 | 1009.4 |
| 20260505082231 | 68 | 350 | 6.0 | 8.0 | 0.00 | 0.00 | 0.00 | 53 | 1009.4 |
| 20260505081750 | 68 | 353 | 6.0 | 7.0 | 0.00 | 0.00 | 0.00 | 53 | 1009.5 |
| 20260505081309 | 69 | 0 | 7.0 | 8.0 | 0.00 | 0.00 | 0.00 | 53 | 1009.5 |
| 20260505080828 | 68 | 3 | 6.0 | 8.0 | 0.00 | 0.00 | 0.00 | 53 | 1009.5 |
| 20260505080347 | 68 | 0 | 7.0 | 9.0 | 0.00 | 0.00 | 0.00 | 53 | 1009.5 |
| 20260505080007 | 67 | 0 | 7.0 | 9.0 | 0.00 | 0.00 | 0.00 | 53 | 1009.5 |
| 20260505075906 | 67 | 0 | 7.0 | 9.0 | 0.00 | 0.00 | 0.00 | 53 | 1009.5 |
| 20260505075425 | 68 | 354 | 6.0 | 8.0 | 0.00 | 0.00 | 0.00 | 54 | 1009.5 |
| 20260505074944 | 68 | 0 | 6.0 | 8.0 | 0.00 | 0.00 | 0.00 | 54 | 1009.6 |
| 20260505074503 | 68 | 0 | 5.0 | 6.0 | 0.00 | 0.00 | 0.00 | 56 | 1009.6 |
| 20260505074022 | 68 | 357 | 5.0 | 7.0 | 0.00 | 0.00 | 0.00 | 57 | 1009.6 |
| 20260505073541 | 68 | 348 | 4.0 | 6.0 | 0.00 | 0.00 | 0.00 | 58 | 1009.6 |
| 20260505073100 | 68 | 351 | 4.0 | 6.0 | 0.00 | 0.00 | 0.00 | 59 | 1009.7 |
| 20260505072619 | 68 | 336 | 5.0 | 7.0 | 0.00 | 0.00 | 0.00 | 56 | 1009.7 |
| 20260505072143 | 68 | 0 | 4.0 | 7.0 | 0.00 | 0.00 | 0.00 | 59 | 1009.7 |
| 20260505072138 | 68 | 0 | 4.0 | 7.0 | 0.00 | 0.00 | 0.00 | 59 | 1009.7 |
| 20260505071702 | 67 | 351 | 4.0 | 6.0 | 0.00 | 0.00 | 0.00 | 61 | 1009.8 |
| 20260505071657 | 67 | 351 | 4.0 | 6.0 | 0.00 | 0.00 | 0.00 | 61 | 1009.8 |
| 20260505071220 | 67 | 0 | 4.0 | 5.0 | 0.00 | 0.00 | 0.00 | 62 | 1009.9 |
| 20260505071216 | 67 | 0 | 4.0 | 5.0 | 0.00 | 0.00 | 0.00 | 62 | 1009.9 |
| 20260505070735 | 66 | 338 | 5.0 | 6.0 | 0.00 | 0.00 | 0.00 | 58 | 1009.9 |
| 20260505070259 | 65 | 331 | 4.0 | 7.0 | 0.00 | 0.00 | 0.00 | 64 | 1009.9 |
| 20260505070255 | 65 | 331 | 4.0 | 7.0 | 0.00 | 0.00 | 0.00 | 64 | 1009.9 |
| 20260505065819 | 64 | 357 | 4.0 | 5.0 | 0.00 | 0.00 | 0.00 | 62 | 1009.9 |
| 20260505065814 | 64 | 357 | 4.0 | 5.0 | 0.00 | 0.00 | 0.00 | 62 | 1009.9 |
| 20260505065338 | 62 | 0 | 4.0 | 5.0 | 0.00 | 0.00 | 0.00 | 62 | 1009.9 |
| 20260505065334 | 62 | 0 | 4.0 | 5.0 | 0.00 | 0.00 | 0.00 | 62 | 1009.9 |
| 20260505064853 | 62 | 0 | 4.0 | 5.0 | 0.00 | 0.00 | 0.00 | 62 | 1010.0 |
| 20260505064413 | 62 | 0 | 4.0 | 5.0 | 0.00 | 0.00 | 0.00 | 62 | 1010.0 |
| 20260505064028 | 62 | 0 | 4.0 | 5.0 | 0.00 | 0.00 | 0.00 | 63 | 1009.9 |
| 20260505063937 | 62 | 0 | 4.0 | 5.0 | 0.00 | 0.00 | 0.00 | 63 | 1009.9 |
| 20260505063932 | 62 | 0 | 4.0 | 5.0 | 0.00 | 0.00 | 0.00 | 63 | 1009.9 |
| 20260505063452 | 61 | 0 | 4.0 | 5.0 | 0.00 | 0.00 | 0.00 | 63 | 1010.0 |
| 20260505063011 | 60 | 0 | 4.0 | 4.0 | 0.00 | 0.00 | 0.00 | 64 | 1010.0 |
| 20260505062536 | 60 | 3 | 4.0 | 5.0 | 0.00 | 0.00 | 0.00 | 64 | 1009.9 |
| 20260505062531 | 60 | 3 | 4.0 | 5.0 | 0.00 | 0.00 | 0.00 | 64 | 1009.9 |
| 20260505062055 | 60 | 9 | 5.0 | 6.0 | 0.00 | 0.00 | 0.00 | 64 | 1010.0 |
| 20260505062051 | 60 | 9 | 5.0 | 6.0 | 0.00 | 0.00 | 0.00 | 64 | 1010.0 |
| 20260505061610 | 59 | 19 | 5.0 | 6.0 | 0.00 | 0.00 | 0.00 | 65 | 1010.0 |
| 20260505061217 | 59 | 36 | 5.0 | 6.0 | 0.00 | 0.00 | 0.00 | 65 | 1010.0 |
| 20260505061134 | 59 | 36 | 5.0 | 6.0 | 0.00 | 0.00 | 0.00 | 65 | 1010.0 |
| 20260505061130 | 59 | 36 | 5.0 | 6.0 | 0.00 | 0.00 | 0.00 | 65 | 1010.0 |
| 20260505060653 | 59 | 45 | 4.0 | 5.0 | 0.00 | 0.00 | 0.00 | 65 | 1010.1 |
| 20260505060649 | 59 | 45 | 4.0 | 5.0 | 0.00 | 0.00 | 0.00 | 65 | 1010.1 |
| 20260505060213 | 59 | 45 | 3.0 | 4.0 | 0.00 | 0.00 | 0.00 | 65 | 1010.2 |
| 20260505060209 | 59 | 45 | 3.0 | 4.0 | 0.00 | 0.00 | 0.00 | 65 | 1010.2 |
| 20260505055925 | 59 | 45 | 3.0 | 4.0 | 0.00 | 0.00 | 0.00 | 65 | 1010.3 |
| 20260505055733 | 59 | 45 | 3.0 | 4.0 | 0.00 | 0.00 | 0.00 | 65 | 1010.3 |
| 20260505055729 | 59 | 45 | 3.0 | 4.0 | 0.00 | 0.00 | 0.00 | 65 | 1010.3 |
| 20260505055253 | 59 | 45 | 4.0 | 4.0 | 0.00 | 0.00 | 0.00 | 65 | 1010.2 |
| 20260505055248 | 59 | 45 | 4.0 | 4.0 | 0.00 | 0.00 | 0.00 | 65 | 1010.2 |
| 20260505054812 | 59 | 45 | 4.0 | 5.0 | 0.00 | 0.00 | 0.00 | 65 | 1010.2 |
| 20260505054808 | 59 | 45 | 4.0 | 5.0 | 0.00 | 0.00 | 0.00 | 65 | 1010.2 |
| 20260505054332 | 59 | 45 | 4.0 | 5.0 | 0.00 | 0.00 | 0.00 | 65 | 1010.2 |
| 20260505054328 | 59 | 45 | 4.0 | 5.0 | 0.00 | 0.00 | 0.00 | 65 | 1010.2 |
| 20260505053852 | 59 | 45 | 5.0 | 5.0 | 0.00 | 0.00 | 0.00 | 66 | 1010.1 |
| 20260505053847 | 59 | 45 | 5.0 | 5.0 | 0.00 | 0.00 | 0.00 | 66 | 1010.1 |
| 20260505053411 | 59 | 45 | 5.0 | 5.0 | 0.00 | 0.00 | 0.00 | 65 | 1010.0 |
| 20260505053407 | 59 | 45 | 5.0 | 5.0 | 0.00 | 0.00 | 0.00 | 65 | 1010.0 |
| 20260505052931 | 59 | 45 | 4.0 | 4.0 | 0.00 | 0.00 | 0.00 | 65 | 1010.0 |
| 20260505052926 | 59 | 45 | 4.0 | 4.0 | 0.00 | 0.00 | 0.00 | 65 | 1010.0 |
| 20260505052446 | 59 | 45 | 4.0 | 4.0 | 0.00 | 0.00 | 0.00 | 65 | 1010.1 |
| 20260505052319 | 59 | 45 | 4.0 | 4.0 | 0.00 | 0.00 | 0.00 | 65 | 1010.1 |
| 20260505052010 | 59 | 45 | 4.0 | 4.0 | 0.00 | 0.00 | 0.00 | 65 | 1010.1 |
| 20260505052006 | 59 | 45 | 4.0 | 4.0 | 0.00 | 0.00 | 0.00 | 65 | 1010.1 |
| 20260505051530 | 59 | 45 | 3.0 | 3.0 | 0.00 | 0.00 | 0.00 | 65 | 1010.2 |
| 20260505051525 | 59 | 45 | 3.0 | 3.0 | 0.00 | 0.00 | 0.00 | 65 | 1010.2 |
| 20260505051217 | 59 | 45 | 3.0 | 3.0 | 0.00 | 0.00 | 0.00 | 65 | 1010.3 |
| 20260505051049 | 59 | 45 | 3.0 | 3.0 | 0.00 | 0.00 | 0.00 | 65 | 1010.3 |
| 20260505051045 | 59 | 45 | 3.0 | 3.0 | 0.00 | 0.00 | 0.00 | 65 | 1010.3 |
| 20260505050609 | 59 | 45 | 3.0 | 4.0 | 0.00 | 0.00 | 0.00 | 65 | 1010.2 |
| 20260505050605 | 59 | 45 | 3.0 | 4.0 | 0.00 | 0.00 | 0.00 | 65 | 1010.2 |
| 20260505050129 | 58 | 45 | 4.0 | 6.0 | 0.00 | 0.00 | 0.00 | 66 | 1010.2 |
| 20260505050124 | 58 | 45 | 4.0 | 6.0 | 0.00 | 0.00 | 0.00 | 66 | 1010.2 |